Regional Weather Roundup
Issued by NWS Columbia, SC

Home | Current Version | Previous Version | Text Only | Print | Product List | Glossary On
Versions: 1 2 3 4 5 6 7 8 9 10 11 12 13 14 15 16 17 18 19 20 21 22 23 24 25 26 27 28 29 30 31 32 33 34 35 36 37 38 39 40 41 42 43 44 45 46 47 48 49 50
000
ASUS42 KCAE 241410
RWRCAE
REGIONAL WEATHER ROUNDUP
NATIONAL WEATHER SERVICE COLUMBIA SC
1000 AM EDT MON JUL 24 2017

NOTE: "FAIR" INDICATES FEW OR NO CLOUDS BELOW 12,000 FEET WITH NO
SIGNIFICANT WEATHER AND/OR OBSTRUCTIONS TO VISIBILITY.

NOT ALL STATIONS ARE QUALITY CONTROLLED BY THE NATIONAL
WEATHER SERVICE. USE DATA WITH CAUTION...ESPECIALLY
DEWPOINT OBSERVATIONS.

SCZ001>056-GAZ040-063>065-077-241500-
...UPSTATE SOUTH CAROLINA...

CITY           SKY/WX    TMP DP  RH WIND       PRES   REMARKS
ANDERSON       PTSUNNY   80  72  76 VRB6      29.96R
LIBERTY        CLOUDY    76  71  83 CALM      29.96S
SPARTANBURG    CLOUDY    77  70  78 SW5       29.96R
CLEMSON        MOSUNNY   81  73  76 CALM      29.97R
GREENVILLE     SUNNY     80  70  71 CALM      29.98R
GREENWOOD      CLOUDY    75  72  90 VRB3      29.98R
GREER          MOSUNNY   78  71  79 CALM      29.96R
ROCK HILL      PTSUNNY   77  71  82 SW7       29.96F
CHESTER        CLOUDY    77  72  83 CALM      29.97S
LAURENS        CLOUDY    75  72  88 CALM      29.97S


...CENTRAL SOUTH CAROLINA...

CITY           SKY/WX    TMP DP  RH WIND       PRES   REMARKS
COLUMBIA APT   CLOUDY    79  74  84 W7        29.95R
COLUMBIA OWENS CLOUDY    78  75  90 SW5       29.96R
MCENTIRE ANGB  CLOUDY    77  75  93 SW6       29.96R
ORANGEBURG     CLOUDY    78  75  90 SW9       29.97R
SUMTER SHAW    CLOUDY    79  75  89 SW13      29.94R
NEWBERRY       CLOUDY    75  73  94 W3        30.00R
AIKEN          PTSUNNY   79  73  83 SW9       30.00S
BARNWELL         N/A     82  77  83 SW9       29.98R
MANNING        CLOUDY    79  77  94 NW12G18   29.97R
CAMDEN         CLOUDY    77  73  88 CALM      29.97R
LANCASTER      MOSUNNY   79  75  89 W8        29.97R
WINNSBORO      CLOUDY    73  72  94 W5        29.97R


...EASTERN AND COASTAL SOUTH CAROLINA...

CITY           SKY/WX    TMP DP  RH WIND       PRES   REMARKS
N MYRTLE BCH   CLOUDY    81  76  84 W6        29.95R
CONWAY         FAIR      81  73  78 SW9       29.96R HAZE
MARION         CLOUDY    79  73  83 SW9       29.95
HARTSVILLE     CLOUDY    73  72  94 SW3       29.96R
FLORENCE       CLOUDY    79  76  90 SW8       29.95R
DARLINGTON     CLOUDY    77  74  90 SW8       29.96R
CHARLESTON APT PTSUNNY   80  74  81 SW13      29.99R
MOUNT PLEASANT CLOUDY    81  77  89 SW14      29.99R
WALTERBORO     RAIN      72  72 100 SW5       30.02R
BEAUFORT       RAIN      77  76  96 W3        30.02R


...EASTERN GEORGIA...

CITY           SKY/WX    TMP DP  RH WIND       PRES   REMARKS
AUGUSTA BUSH F CLOUDY    83  76  79 S7        29.96R
AUGUSTA DANIEL SUNNY     83  73  72 SW7       29.97R
THOMSON        PTSUNNY   81  75  82 NW10      30.02R
WASHINGTON     FAIR     N/A N/A N/A W5        29.97R
CLAXTON        FAIR      81  76  86 CALM      30.01R
SYLVANIA       CLOUDY    77  77  99 SW5       30.01S
STATESBORO     CLOUDY    79  79 100 SW6       30.01R
SAVANNAH       CLOUDY    82  74  76 SW7       30.02R


...SOUTHERN NORTH CAROLINA...

CITY           SKY/WX    TMP DP  RH WIND       PRES   REMARKS
CHARLOTTE      CLOUDY    80  71  74 VRB5      29.97R
MONROE         PTSUNNY   77  70  79 W8        29.96R
ROCKINGHAM     CLOUDY    75  73  93 W8        29.95R
RUTHERFORDTON  CLOUDY    75  74  98 CALM      29.99R
ASHEVILLE      PTSUNNY   74  69  85 N9        30.04R

$$



USA.gov is the U.S. government's official web portal to all federal, state and local government web resources and services.